HATRANCH Weather Reports


time (UTC)temp
C
wind
direction
speed
KPH
gust
KPH
rain 1hr
cm
rain 24hr
cm
rain mn
cm
humidity
%
barometer
mb
20260507094515 5 54 0.0 3.2 0.00 0.00 0.00 53 1023.3
20260507093027 7 352 1.6 8.0 0.00 0.00 0.00 44 1023.2
20260507091548 8 115 0.0 6.4 0.00 0.00 0.00 43 1023.2
20260507090028 10 126 4.8 12.9 0.00 0.00 0.00 43 1023.2
20260507084530 7 76 3.2 9.7 0.00 0.00 0.00 50 1023.2
20260507083022 5 79 4.8 8.0 0.00 0.00 0.00 54 1023.2
20260507081535 4 111 0.0 4.8 0.00 0.00 0.00 50 1023.1
20260507080025 5 111 1.6 3.2 0.00 0.00 0.00 46 1023.1
20260507074530 7 189 1.6 3.2 0.00 0.00 0.00 45 1023.0
20260507073036 7 134 6.4 12.9 0.00 0.00 0.00 44 1023.0
20260507071522 8 140 0.0 4.8 0.00 0.00 0.00 42 1022.7
20260507070007 11 100 3.2 11.3 0.00 0.00 0.00 38 1022.7
20260507064513 11 344 4.8 9.7 0.00 0.00 0.00 32 1022.5
20260507063015 9 9 1.6 8.0 0.00 0.00 0.00 39 1022.5
20260507061529 7 346 1.6 3.2 0.00 0.00 0.00 42 1022.5
20260507060031 8 48 0.0 1.6 0.00 0.00 0.00 39 1022.4
20260507054505 10 48 1.6 4.8 0.00 0.00 0.00 36 1022.2
20260507053015 10 22 3.2 6.4 0.00 0.00 0.00 36 1022.3
20260507051528 8 21 3.2 4.8 0.00 0.00 0.00 40 1022.1
20260507050033 6 34 3.2 4.8 0.00 0.00 0.00 45 1022.0
20260507044541 5 34 1.6 4.8 0.00 0.00 0.00 47 1022.0
20260507043010 5 34 1.6 3.2 0.00 0.00 0.00 47 1022.0
20260507041516 6 35 3.2 4.8 0.00 0.00 0.00 45 1021.8
20260507040023 6 47 3.2 4.8 0.00 0.00 0.00 44 1021.8
20260507034521 7 47 3.2 4.8 0.00 0.00 0.00 42 1021.7
20260507033028 8 47 1.6 4.8 0.00 0.00 0.00 41 1021.4
20260507031512 8 47 1.6 3.2 0.00 0.00 0.00 39 1021.2
20260507030018 10 47 1.6 3.2 0.00 0.00 0.00 36 1021.0
20260507024522 11 47 1.6 3.2 0.00 0.00 0.00 35 1020.8
20260507023026 13 76 1.6 3.2 0.00 0.00 0.00 31 1020.6
20260507021526 15 266 0.0 3.2 0.00 0.00 0.00 29 1020.5
20260507020014 15 266 1.6 4.8 0.00 0.00 0.00 27 1020.4
20260507014516 16 333 0.0 14.5 0.00 0.00 0.00 26 1020.4
20260507013025 16 284 3.2 8.0 0.00 0.00 0.00 25 1020.2
20260507011531 16 267 6.4 12.9 0.00 0.00 0.00 23 1020.1
20260507010028 17 106 1.6 9.7 0.00 0.00 0.00 22 1020.0
20260507004517 18 315 4.8 17.7 0.00 0.00 0.00 23 1019.9
20260507003022 18 20 4.8 14.5 0.00 0.00 0.00 21 1019.8
20260507001526 18 9 6.4 20.9 0.00 0.00 0.00 21 1019.7
20260507000029 18 56 4.8 29.0 0.00 0.00 0.00 22 1019.5
20260506234530 18 284 8.0 20.9 0.00 0.00 0.00 22 1019.5
20260506233020 18 350 6.4 17.7 0.00 0.00 0.00 24 1019.5
20260506231526 18 304 8.0 22.5 0.00 0.00 0.00 23 1019.4
20260506230030 18 327 9.7 19.3 0.00 0.00 0.00 23 1019.3
20260506224525 17 261 9.7 27.4 0.00 0.00 0.00 23 1019.3
20260506223017 18 290 14.5 29.0 0.00 0.00 0.00 22 1019.4
20260506221520 18 304 6.4 17.7 0.00 0.00 0.00 24 1019.6
20260506220005 18 15 8.0 22.5 0.00 0.00 0.00 22 1019.8
20260506214506 18 324 6.4 25.7 0.00 0.00 0.00 21 1019.9
20260506213014 17 317 16.1 25.7 0.00 0.00 0.00 25 1020.0
20260506211512 17 14 6.4 30.6 0.00 0.00 0.00 24 1020.0
20260506210005 17 315 9.7 19.3 0.00 0.00 0.00 28 1020.0
20260506204508 17 313 9.7 19.3 0.00 0.00 0.00 29 1020.1
20260506203010 17 311 8.0 20.9 0.00 0.00 0.00 29 1020.3
20260506201509 17 306 9.7 24.1 0.00 0.00 0.00 29 1020.3
20260506200010 16 350 8.0 22.5 0.00 0.00 0.00 32 1020.3
20260506194507 16 331 6.4 16.1 0.00 0.00 0.00 32 1020.4
20260506193014 15 16 6.4 19.3 0.00 0.00 0.00 33 1020.4
20260506191512 15 293 8.0 25.7 0.00 0.00 0.00 33 1020.4
20260506190010 15 24 6.4 17.7 0.00 0.00 0.00 33 1020.7
20260506184511 15 37 6.4 16.1 0.00 0.00 0.00 35 1020.7
20260506183008 13 236 9.7 22.5 0.00 0.00 0.00 36 1020.8
20260506181512 13 291 3.2 20.9 0.00 0.00 0.00 35 1020.8
20260506180013 13 314 9.7 25.7 0.00 0.00 0.00 36 1020.9
20260506174513 13 236 6.4 19.3 0.00 0.00 0.00 35 1020.9
20260506173008 12 258 4.8 19.3 0.00 0.00 0.00 37 1020.9
20260506171509 12 325 8.0 19.3 0.00 0.00 0.00 37 1020.8
20260506170016 12 324 8.0 16.1 0.00 0.00 0.00 36 1020.7
20260506164514 11 237 6.4 12.9 0.00 0.00 0.00 38 1020.5
20260506163029 11 267 4.8 14.5 0.00 0.00 0.00 40 1020.6
20260506161510 10 311 4.8 20.9 0.00 0.00 0.00 41 1020.6
20260506160017 10 330 6.4 12.9 0.00 0.00 0.00 41 1020.5
20260506154522 10 250 8.0 12.9 0.00 0.00 0.00 43 1020.3
20260506153016 9 298 9.7 17.7 0.00 0.00 0.00 44 1020.3
20260506151518 8 298 8.0 14.5 0.00 0.00 0.00 46 1020.2
20260506150018 8 304 3.2 14.5 0.00 0.00 0.00 49 1019.9
20260506144516 8 306 4.8 12.9 0.00 0.00 0.00 51 1019.9
20260506143018 7 297 4.8 8.0 0.00 0.00 0.00 51 1019.8
20260506141522 6 338 0.0 4.8 0.00 0.00 0.00 60 1019.9
20260506140020 2 32 0.0 3.2 0.00 0.00 0.00 73 1019.7
20260506134515 0 32 1.6 3.2 0.00 0.00 0.00 78 1019.5
20260506133021 -17 0.0 0.0 0.00 0.00 0.00 1019.3
20260506131520 -17 0.0 0.0 0.00 0.00 0.00 1019.3
20260506130022 -17 0.0 0.0 0.00 0.00 0.00 1019.1
20260506124524 -17 0.0 0.0 0.00 0.00 0.00 1018.8
20260506123023 -17 0.0 0.0 0.00 0.00 0.00 1018.6
20260506121523 -17 0.0 0.0 0.00 0.00 0.00 1018.6
20260506120030 -17 0.0 0.0 0.00 0.00 0.00 1018.7
20260506114526 -17 0.0 0.0 0.00 0.00 0.00 1018.5
20260506113024 -17 0.0 0.0 0.00 0.00 0.00 1018.5
20260506111527 -17 0.0 0.0 0.00 0.00 0.00 1018.5
20260506110027 -17 0.0 0.0 0.00 0.00 0.00 1018.5
20260506104526 -17 0.0 0.0 0.00 0.00 0.00 1018.4
20260506103027 -17 0.0 0.0 0.00 0.00 0.00 1018.1
20260506101529 -17 0.0 0.0 0.00 0.00 0.00 1018.0
20260506100027 -17 0.0 0.0 0.00 0.00 0.00 1017.8